Location: Dumpton Point
(51.3500°N, 1.4433°E)
Time: 07:17:49
(UTC+00:00)

Envisat - Pass Details

Date: 15 December 2021
Orbit: 764 x 766 km, 98.2° (Epoch: 17 January)

Event Time Altitude Azimuth Distance (km) Brightness Sun altitude
Rises 03:41:24 0° 26° (NNE) 3,245 6.6 -37.8°
Reaches altitude 10° 03:44:26 10° 44° (NE) 2,313 6.0 -37.3°
Maximum altitude 03:47:58 19° 88° (E) 1,781 5.5 -36.8°
Drops below altitude 10° 03:51:28 10° 133° (SE) 2,300 5.8 -36.2°
Sets 03:54:27 0° 151° (SSE) 3,220 6.5 -35.8°
